CW8733 Weather Reports


Display with metric or nautical units.
time (UTC)temp
F
wind
direction
speed
MPH
gust
MPH
rain 1hr
in
rain 24hr
in
rain mn
in
humidity
%
barometer
mb
20260504081016 67 0.0 1.0 0.00 0.00 0.00 35 1012.8
20260504050016 72 225 4.0 10.0 0.00 0.00 0.00 26 1013.5
20260504045036 72 270 1.0 6.0 0.00 0.00 0.00 26 1013.6
20260504044016 72 0.0 0.0 0.00 0.00 0.00 25 1013.6
20260504043036 73 0.0 0.0 0.00 0.00 0.00 24 1013.3
20260504042016 74 0.0 0.0 0.00 0.00 0.00 23 1013.5
20260504041016 75 293 1.0 4.0 0.00 0.00 0.00 22 1013.2
20260504040016 75 270 1.0 4.0 0.00 0.00 0.00 22 1012.7
20260504035016 76 270 4.0 8.0 0.00 0.00 0.00 21 1012.7
20260504034016 76 248 3.0 6.0 0.00 0.00 0.00 21 1012.5
20260504033036 76 248 4.0 7.0 0.00 0.00 0.00 20 1012.2
20260504032016 76 248 2.0 8.0 0.00 0.00 0.00 19 1012.0
20260504031016 78 203 1.0 4.0 0.00 0.00 0.00 17 1011.7
20260504030056 78 248 2.0 5.0 0.00 0.00 0.00 17 1011.5
20260504025016 79 248 5.0 12.0 0.00 0.00 0.00 16 1011.3
20260504024016 79 248 4.0 8.0 0.00 0.00 0.00 15 1011.1
20260504023016 80 270 5.0 11.0 0.00 0.00 0.00 15 1010.8
20260504022016 80 225 1.0 6.0 0.00 0.00 0.00 14 1010.5
20260504021016 81 0.0 2.0 0.00 0.00 0.00 14 1010.7
20260504020036 82 225 2.0 9.0 0.00 0.00 0.00 13 1010.6
20260504015016 82 225 6.0 11.0 0.00 0.00 0.00 13 1010.6
20260504014016 83 225 8.0 14.0 0.00 0.00 0.00 13 1010.6
20260504012016 85 225 8.0 16.0 0.00 0.00 0.00 13 1010.6
20260504011056 85 225 8.0 15.0 0.00 0.00 0.00 12 1010.8
20260504010016 85 225 9.0 18.0 0.00 0.00 0.00 13 1010.8
20260504005056 86 225 8.0 17.0 0.00 0.00 0.00 12 1010.8
20260504004016 86 225 12.0 21.0 0.00 0.00 0.00 13 1010.8
20260504003016 87 248 12.0 20.0 0.00 0.00 0.00 13 1010.8
20260504002016 87 225 11.0 20.0 0.00 0.00 0.00 13 1010.7
20260504001036 88 225 12.0 21.0 0.00 0.00 0.00 13 1010.6
20260504000036 89 225 11.0 20.0 0.00 0.00 0.00 12 1010.9
20260503235016 89 225 9.0 14.0 0.00 0.00 0.00 13 1010.7
20260503234036 90 225 9.0 19.0 0.00 0.00 0.00 14 1010.5
20260503233036 90 203 7.0 14.0 0.00 0.00 0.00 13 1010.6
20260503232016 90 225 10.0 22.0 0.00 0.00 0.00 14 1010.7
20260503231015 90 225 7.0 18.0 0.00 0.00 0.00 13 1010.7
20260503230016 91 225 8.0 16.0 0.00 0.00 0.00 13 1010.9
20260503225016 90 248 5.0 12.0 0.00 0.00 0.00 14 1010.8
20260503224016 90 225 4.0 9.0 0.00 0.00 0.00 14 1011.0
20260503223016 89 248 9.0 15.0 0.00 0.00 0.00 15 1011.0
20260503222016 88 225 6.0 12.0 0.00 0.00 0.00 17 1011.0
20260503221015 88 248 10.0 14.0 0.00 0.00 0.00 20 1010.8
20260503220016 87 248 6.0 10.0 0.00 0.00 0.00 20 1011.0
20260503215015 88 203 4.0 7.0 0.00 0.00 0.00 22 1011.3
20260503214015 88 203 8.0 14.0 0.00 0.00 0.00 21 1011.5
20260503213015 87 225 2.0 7.0 0.00 0.00 0.00 23 1011.5
20260503212015 87 315 1.0 5.0 0.00 0.00 0.00 23 1011.8
20260503211015 86 225 3.0 9.0 0.00 0.00 0.00 24 1012.0
20260503210015 86 203 2.0 6.0 0.00 0.00 0.00 24 1012.2
20260503205015 86 113 4.0 8.0 0.00 0.00 0.00 24 1012.4
20260503204016 85 293 3.0 6.0 0.00 0.00 0.00 24 1012.7
20260503203016 85 180 5.0 8.0 0.00 0.00 0.00 24 1012.8
20260503202035 85 225 6.0 12.0 0.00 0.00 0.00 24 1012.9
20260503201016 85 180 8.0 18.0 0.00 0.00 0.00 23 1013.0
20260503200035 86 203 5.0 8.0 0.00 0.00 0.00 22 1013.2
20260503195015 86 203 7.0 14.0 0.00 0.00 0.00 21 1013.4
20260503194015 86 135 7.0 12.0 0.00 0.00 0.00 21 1013.4
20260503193015 85 180 4.0 11.0 0.00 0.00 0.00 22 1013.4
20260503192015 85 225 3.0 8.0 0.00 0.00 0.00 25 1013.4
20260503191015 84 0.0 2.0 0.00 0.00 0.00 27 1013.7
20260503190015 83 0 2.0 4.0 0.00 0.00 0.00 27 1013.9
20260503185016 83 248 1.0 5.0 0.00 0.00 0.00 28 1014.2
20260503184035 83 270 3.0 7.0 0.00 0.00 0.00 28 1014.3
20260503183016 83 225 1.0 5.0 0.00 0.00 0.00 28 1014.5
20260503182035 83 225 1.0 4.0 0.00 0.00 0.00 28 1014.6
20260503181016 83 248 1.0 3.0 0.00 0.00 0.00 28 1014.8
20260503180015 82 0.0 1.0 0.00 0.00 0.00 28 1014.8
20260503175015 83 270 1.0 4.0 0.00 0.00 0.00 28 1015.0
20260503174015 83 203 1.0 5.0 0.00 0.00 0.00 28 1015.0
20260503173015 83 0.0 0.0 0.00 0.00 0.00 28 1015.0
20260503172016 82 0 3.0 4.0 0.00 0.00 0.00 29 1015.2
20260503171016 82 0.0 2.0 0.00 0.00 0.00 29 1015.2
20260503131017 72 45 10.0 15.0 0.00 0.00 0.00 39 1014.3